| time (UTC) | temp F | wind direction | speed MPH | gust MPH | rain 1hr in | rain 24hr in | rain mn in | humidity % | barometer mb |
| 20260507095311 | 49 | 243 | 1.0 | 1.0 | 0.00 | 0.01 | 0.01 | 84 | 1004.7 |
| 20260507094809 | 49 | 237 | 1.0 | 1.0 | 0.00 | 0.01 | 0.01 | 84 | 1004.4 |
| 20260507094305 | 49 | 333 | 3.0 | 7.0 | 0.00 | 0.01 | 0.01 | 84 | 1004.5 |
| 20260507093802 | 49 | 315 | 2.0 | 3.0 | 0.00 | 0.01 | 0.01 | 84 | 1004.7 |
| 20260507093301 | 49 | 292 | 1.0 | 2.0 | 0.00 | 0.01 | 0.01 | 84 | 1004.3 |
| 20260507092758 | 49 | 275 | 2.0 | 3.0 | 0.00 | 0.01 | 0.01 | 84 | 1004.7 |
| 20260507092254 | 49 | 292 | 6.0 | 9.0 | 0.00 | 0.01 | 0.01 | 83 | 1004.8 |
| 20260507091750 | 49 | 268 | 0.0 | 1.0 | 0.00 | 0.01 | 0.01 | 84 | 1004.9 |
| 20260507091247 | 50 | 277 | 2.0 | 3.0 | 0.00 | 0.01 | 0.01 | 84 | 1004.7 |
| 20260507090742 | 50 | 239 | 2.0 | 3.0 | 0.00 | 0.01 | 0.01 | 83 | 1004.5 |
| 20260507090239 | 50 | 239 | 0.0 | 1.0 | 0.00 | 0.01 | 0.01 | 83 | 1004.6 |
| 20260507085736 | 50 | 248 | 2.0 | 2.0 | 0.00 | 0.01 | 0.01 | 84 | 1004.3 |
| 20260507085233 | 50 | 207 | 2.0 | 2.0 | 0.00 | 0.01 | 0.01 | 83 | 1004.1 |
| 20260507084730 | 50 | 306 | 6.0 | 9.0 | 0.00 | 0.01 | 0.01 | 84 | 1004.2 |
| 20260507084226 | 50 | 249 | 1.0 | 2.0 | 0.00 | 0.01 | 0.01 | 84 | 1004.2 |
| 20260507083724 | 50 | 256 | 5.0 | 7.0 | 0.05 | 0.01 | 0.01 | 84 | 1004.1 |
| 20260507083220 | 50 | 250 | 1.0 | 1.0 | 0.05 | 0.01 | 0.01 | 85 | 1004.0 |
| 20260507082716 | 50 | 234 | 2.0 | 2.0 | 0.00 | 0.00 | 0.00 | 85 | 1004.2 |
| 20260507082212 | 50 | 212 | 2.0 | 4.0 | 0.00 | 0.00 | 0.00 | 85 | 1004.0 |
| 20260507081709 | 50 | 231 | 1.0 | 2.0 | 0.00 | 0.00 | 0.00 | 86 | 1004.0 |
| 20260507081205 | 50 | 235 | 2.0 | 3.0 | 0.00 | 0.00 | 0.00 | 85 | 1004.4 |
| 20260507080702 | 50 | 233 | 2.0 | 3.0 | 0.00 | 0.00 | 0.00 | 85 | 1004.5 |
| 20260507080153 | 51 | 263 | 3.0 | 4.0 | 0.00 | 0.00 | 0.00 | 83 | 1004.1 |
| 20260507075653 | 51 | 295 | 9.0 | 10.0 | 0.00 | 0.00 | 0.00 | 82 | 1003.9 |
| 20260507075150 | 51 | 222 | 4.0 | 7.0 | 0.00 | 0.00 | 0.00 | 82 | 1004.2 |
| 20260507074647 | 51 | 240 | 2.0 | 2.0 | 0.00 | 0.00 | 0.00 | 82 | 1004.5 |
| 20260507074145 | 51 | 241 | 3.0 | 6.0 | 0.00 | 0.00 | 0.00 | 82 | 1004.1 |
| 20260507073641 | 51 | 247 | 3.0 | 4.0 | 0.00 | 0.00 | 0.00 | 83 | 1004.1 |
| 20260507073137 | 51 | 240 | 1.0 | 1.0 | 0.00 | 0.00 | 0.00 | 83 | 1004.0 |
| 20260507072636 | 51 | 282 | 3.0 | 6.0 | 0.00 | 0.00 | 0.00 | 83 | 1003.9 |
| 20260507072127 | 52 | 244 | 2.0 | 3.0 | 0.00 | 0.00 | 0.00 | 84 | 1003.7 |
| 20260507071625 | 52 | 252 | 1.0 | 2.0 | 0.00 | 0.00 | 0.00 | 85 | 1004.0 |
| 20260507071121 | 52 | 297 | 5.0 | 8.0 | 0.00 | 0.00 | 0.00 | 86 | 1003.8 |
| 20260507070618 | 52 | 283 | 4.0 | 4.0 | 0.00 | 0.00 | 0.00 | 87 | 1003.6 |
| 20260507070115 | 52 | 249 | 1.0 | 1.0 | 0.00 | 0.00 | 0.00 | 89 | 1003.5 |
| 20260507065611 | 52 | 245 | 1.0 | 1.0 | 0.00 | 0.00 | 0.00 | 89 | 1003.6 |
| 20260507065108 | 53 | 270 | 2.0 | 3.0 | 0.00 | 0.00 | 0.00 | 89 | 1003.6 |
| 20260507064606 | 53 | 240 | 2.0 | 3.0 | 0.00 | 0.00 | 0.00 | 88 | 1003.7 |
| 20260507064105 | 53 | 237 | 2.0 | 3.0 | 0.00 | 0.00 | 0.00 | 88 | 1003.5 |
| 20260507063602 | 53 | 236 | 0.0 | 1.0 | 0.00 | 0.00 | 0.00 | 88 | 1003.2 |
| 20260507063059 | 53 | 237 | 1.0 | 1.0 | 0.00 | 0.00 | 0.00 | 88 | 1003.3 |
| 20260507062555 | 53 | 256 | 4.0 | 8.0 | 0.00 | 0.00 | 0.00 | 87 | 1003.4 |
| 20260507062053 | 53 | 244 | 1.0 | 2.0 | 0.00 | 0.00 | 0.00 | 87 | 1003.5 |
| 20260507061550 | 53 | 246 | 1.0 | 1.0 | 0.00 | 0.00 | 0.00 | 87 | 1003.6 |
| 20260507061048 | 53 | 299 | 1.0 | 2.0 | 0.00 | 0.00 | 0.00 | 87 | 1003.6 |
| 20260507060546 | 53 | 238 | 1.0 | 1.0 | 0.00 | 0.00 | 0.00 | 88 | 1003.5 |
| 20260507060042 | 53 | 270 | 1.0 | 1.0 | 0.00 | 0.00 | 0.00 | 88 | 1003.7 |
| 20260507055542 | 53 | 339 | 3.0 | 6.0 | 0.00 | 0.00 | 0.00 | 88 | 1003.8 |
| 20260507055039 | 53 | 248 | 2.0 | 2.0 | 0.00 | 0.00 | 0.00 | 89 | 1003.8 |
| 20260507054535 | 53 | 244 | 1.0 | 2.0 | 0.00 | 0.00 | 0.00 | 89 | 1003.7 |
| 20260507054032 | 53 | 298 | 2.0 | 3.0 | 0.00 | 0.00 | 0.00 | 89 | 1003.6 |
| 20260507053530 | 53 | 277 | 2.0 | 3.0 | 0.00 | 0.00 | 0.00 | 89 | 1003.4 |
| 20260507053029 | 54 | 247 | 3.0 | 3.0 | 0.00 | 0.00 | 0.00 | 88 | 1003.7 |
| 20260507052526 | 53 | 229 | 3.0 | 4.0 | 0.00 | 0.00 | 0.00 | 88 | 1003.7 |
| 20260507052022 | 53 | 226 | 0.0 | 1.0 | 0.00 | 0.00 | 0.00 | 88 | 1003.6 |
| 20260507051520 | 54 | 253 | 1.0 | 1.0 | 0.00 | 0.00 | 0.00 | 89 | 1003.7 |
| 20260507051017 | 54 | 258 | 1.0 | 1.0 | 0.00 | 0.00 | 0.00 | 89 | 1003.7 |
| 20260507050513 | 54 | 250 | 3.0 | 4.0 | 0.00 | 0.00 | 0.00 | 90 | 1004.0 |
| 20260507050010 | 54 | 301 | 6.0 | 8.0 | 0.00 | 0.00 | 0.00 | 90 | 1003.9 |
| 20260507045506 | 54 | 254 | 2.0 | 3.0 | 0.00 | 0.00 | 0.00 | 90 | 1003.6 |
| 20260507045004 | 54 | 246 | 3.0 | 4.0 | 0.00 | 0.00 | 0.00 | 90 | 1003.4 |
| 20260507044500 | 54 | 234 | 2.0 | 2.0 | 0.00 | 0.00 | 0.00 | 90 | 1003.6 |
| 20260507043956 | 54 | 217 | 0.0 | 1.0 | 0.00 | 0.00 | 0.00 | 91 | 1003.5 |
| 20260507043453 | 54 | 271 | 1.0 | 2.0 | 0.00 | 0.00 | 0.00 | 92 | 1003.7 |
| 20260507042949 | 55 | 276 | 4.0 | 4.0 | 0.00 | 0.00 | 0.00 | 93 | 1003.5 |
| 20260507042446 | 56 | 326 | 4.0 | 7.0 | 0.00 | 0.00 | 0.00 | 94 | 1003.8 |
| 20260507041942 | 56 | 302 | 4.0 | 6.0 | 0.00 | 0.00 | 0.00 | 94 | 1003.8 |
| 20260507041439 | 57 | 216 | 3.0 | 4.0 | 0.00 | 0.00 | 0.00 | 95 | 1003.6 |
| 20260507040936 | 57 | 250 | 3.0 | 6.0 | 0.00 | 0.00 | 0.00 | 96 | 1003.7 |
| 20260507040432 | 59 | 254 | 1.0 | 1.0 | 0.00 | 0.00 | 0.00 | 96 | 1003.2 |
| 20260507035928 | 59 | 239 | 2.0 | 2.0 | 0.00 | 0.21 | 0.21 | 97 | 1003.2 |
| 20260507035425 | 59 | 237 | 2.0 | 3.0 | 0.00 | 0.21 | 0.21 | 97 | 1003.3 |
| 20260507034922 | 59 | 238 | 2.0 | 2.0 | 0.00 | 0.21 | 0.21 | 97 | 1003.0 |
| 20260507034419 | 59 | 236 | 2.0 | 4.0 | 0.00 | 0.21 | 0.21 | 97 | 1003.1 |
| 20260507033917 | 59 | 223 | 1.0 | 1.0 | 0.00 | 0.21 | 0.21 | 97 | 1003.1 |
| 20260507033414 | 59 | 214 | 4.0 | 6.0 | 0.00 | 0.21 | 0.21 | 97 | 1002.8 |
| 20260507032911 | 59 | 231 | 1.0 | 1.0 | 0.00 | 0.21 | 0.21 | 97 | 1002.7 |
| 20260507032408 | 59 | 228 | 1.0 | 2.0 | 0.00 | 0.21 | 0.21 | 97 | 1002.7 |
| 20260507031904 | 59 | 212 | 3.0 | 3.0 | 0.00 | 0.21 | 0.21 | 97 | 1002.6 |
| 20260507031401 | 59 | 238 | 3.0 | 3.0 | 0.00 | 0.21 | 0.21 | 97 | 1002.5 |
| 20260507030857 | 59 | 220 | 1.0 | 2.0 | 0.00 | 0.21 | 0.21 | 97 | 1002.4 |
| 20260507030355 | 59 | 237 | 1.0 | 2.0 | 0.00 | 0.21 | 0.21 | 97 | 1002.4 |
| 20260507025851 | 59 | 228 | 3.0 | 3.0 | 0.00 | 0.21 | 0.21 | 97 | 1002.5 |
| 20260507025349 | 59 | 217 | 1.0 | 2.0 | 0.00 | 0.21 | 0.21 | 97 | 1002.5 |
| 20260507024846 | 59 | 236 | 2.0 | 3.0 | 0.00 | 0.21 | 0.21 | 97 | 1002.8 |
| 20260507024344 | 59 | 219 | 1.0 | 2.0 | 0.00 | 0.21 | 0.21 | 97 | 1002.5 |
| 20260507023839 | 59 | 222 | 2.0 | 3.0 | 0.00 | 0.21 | 0.21 | 98 | 1002.8 |
| 20260507023336 | 59 | 231 | 3.0 | 3.0 | 0.00 | 0.21 | 0.21 | 98 | 1002.4 |
| 20260507022834 | 59 | 232 | 2.0 | 3.0 | 0.00 | 0.21 | 0.21 | 98 | 1002.4 |
| 20260507022330 | 59 | 237 | 3.0 | 3.0 | 0.00 | 0.21 | 0.21 | 98 | 1002.5 |
| 20260507021826 | 59 | 233 | 1.0 | 2.0 | 0.00 | 0.21 | 0.21 | 98 | 1002.4 |
| 20260507021321 | 59 | 203 | 2.0 | 3.0 | 0.00 | 0.21 | 0.21 | 98 | 1002.3 |
| 20260507020820 | 59 | 234 | 0.0 | 0.0 | 0.00 | 0.21 | 0.21 | 98 | 1002.5 |
| 20260507020316 | 59 | 215 | 4.0 | 6.0 | 0.00 | 0.21 | 0.21 | 98 | 1002.6 |
| 20260507015814 | 59 | 213 | 3.0 | 3.0 | 0.00 | 0.21 | 0.21 | 98 | 1002.8 |
| 20260507015311 | 59 | 183 | 2.0 | 3.0 | 0.00 | 0.21 | 0.21 | 98 | 1002.7 |
| 20260507014808 | 59 | 236 | 3.0 | 4.0 | 0.00 | 0.21 | 0.21 | 98 | 1002.7 |
| 20260507014304 | 59 | 186 | 3.0 | 6.0 | 0.00 | 0.21 | 0.21 | 98 | 1002.9 |
| 20260507013800 | 58 | 226 | 4.0 | 4.0 | 0.00 | 0.21 | 0.21 | 98 | 1002.9 |
| 20260507013258 | 59 | 200 | 2.0 | 2.0 | 0.00 | 0.21 | 0.21 | 98 | 1002.9 |
| 20260507012755 | 59 | 229 | 1.0 | 2.0 | 0.00 | 0.21 | 0.21 | 98 | 1002.8 |
| 20260507012251 | 59 | 239 | 4.0 | 6.0 | 0.00 | 0.21 | 0.21 | 98 | 1002.8 |
| 20260507011749 | 59 | 239 | 4.0 | 6.0 | 0.00 | 0.21 | 0.21 | 98 | 1002.8 |
| 20260507011245 | 59 | 229 | 1.0 | 2.0 | 0.00 | 0.21 | 0.21 | 98 | 1002.9 |
| 20260507010744 | 59 | 198 | 5.0 | 6.0 | 0.00 | 0.21 | 0.21 | 98 | 1002.9 |
| 20260507010241 | 59 | 230 | 2.0 | 3.0 | 0.00 | 0.21 | 0.21 | 98 | 1002.9 |
| 20260507005738 | 59 | 197 | 1.0 | 2.0 | 0.00 | 0.21 | 0.21 | 98 | 1002.8 |
| 20260507005234 | 59 | 233 | 0.0 | 1.0 | 0.00 | 0.21 | 0.21 | 98 | 1002.8 |
| 20260507004731 | 59 | 226 | 1.0 | 2.0 | 0.00 | 0.21 | 0.21 | 98 | 1003.0 |
| 20260507004229 | 59 | 229 | 2.0 | 2.0 | 0.00 | 0.21 | 0.21 | 98 | 1003.0 |
| 20260507003725 | 59 | 209 | 2.0 | 2.0 | 0.00 | 0.21 | 0.21 | 97 | 1002.8 |
| 20260507003220 | 59 | 204 | 2.0 | 3.0 | 0.07 | 0.21 | 0.21 | 97 | 1002.9 |
| 20260507002716 | 59 | 237 | 3.0 | 3.0 | 0.07 | 0.21 | 0.21 | 97 | 1003.1 |
| 20260507002213 | 59 | 203 | 2.0 | 3.0 | 0.00 | 0.20 | 0.20 | 97 | 1002.7 |
| 20260507001710 | 59 | 242 | 2.0 | 3.0 | 0.00 | 0.20 | 0.20 | 97 | 1002.7 |
| 20260507001207 | 59 | 230 | 1.0 | 1.0 | 0.00 | 0.20 | 0.20 | 97 | 1002.7 |
| 20260507000703 | 59 | 187 | 2.0 | 3.0 | 0.00 | 0.20 | 0.20 | 97 | 1002.8 |
| 20260507000159 | 59 | 224 | 0.0 | 0.0 | 0.00 | 0.20 | 0.20 | 97 | 1002.7 |
| 20260506235656 | 59 | 189 | 2.0 | 2.0 | 0.00 | 0.20 | 0.20 | 97 | 1002.8 |
| 20260506235151 | 59 | 222 | 1.0 | 2.0 | 0.05 | 0.20 | 0.20 | 96 | 1002.7 |
| 20260506234649 | 59 | 222 | 1.0 | 1.0 | 0.12 | 0.20 | 0.20 | 96 | 1002.6 |
| 20260506234146 | 60 | 207 | 1.0 | 1.0 | 0.24 | 0.19 | 0.19 | 96 | 1002.7 |
| 20260506233643 | 60 | 235 | 0.0 | 0.0 | 0.24 | 0.18 | 0.18 | 96 | 1002.6 |
| 20260506233140 | 60 | 182 | 2.0 | 3.0 | 0.14 | 0.15 | 0.15 | 96 | 1002.7 |
| 20260506232636 | 60 | 241 | 1.0 | 3.0 | 0.07 | 0.14 | 0.14 | 96 | 1002.5 |
| 20260506232131 | 60 | 198 | 3.0 | 6.0 | 0.00 | 0.13 | 0.13 | 96 | 1002.5 |
| 20260506231629 | 60 | 221 | 3.0 | 4.0 | 0.00 | 0.13 | 0.13 | 96 | 1002.7 |
| 20260506231127 | 60 | 228 | 2.0 | 3.0 | 0.00 | 0.13 | 0.13 | 96 | 1002.9 |
| 20260506230624 | 60 | 183 | 4.0 | 6.0 | 0.05 | 0.13 | 0.13 | 95 | 1002.9 |
| 20260506230121 | 60 | 224 | 0.0 | 1.0 | 0.05 | 0.13 | 0.13 | 95 | 1002.8 |
| 20260506225617 | 60 | 237 | 3.0 | 3.0 | 0.05 | 0.13 | 0.13 | 95 | 1003.1 |
| 20260506225114 | 60 | 207 | 3.0 | 4.0 | 0.07 | 0.12 | 0.12 | 95 | 1002.9 |
| 20260506224610 | 60 | 198 | 3.0 | 4.0 | 0.07 | 0.12 | 0.12 | 95 | 1002.7 |
| 20260506224107 | 60 | 207 | 4.0 | 8.0 | 0.07 | 0.12 | 0.12 | 95 | 1003.0 |
| 20260506223603 | 60 | 238 | 2.0 | 2.0 | 0.00 | 0.11 | 0.11 | 95 | 1003.3 |
| 20260506223059 | 60 | 223 | 2.0 | 3.0 | 0.00 | 0.11 | 0.11 | 95 | 1003.0 |
| 20260506222556 | 60 | 233 | 2.0 | 2.0 | 0.00 | 0.11 | 0.11 | 95 | 1003.1 |
| 20260506222052 | 60 | 216 | 4.0 | 6.0 | 0.00 | 0.11 | 0.11 | 95 | 1002.9 |
| 20260506221550 | 60 | 190 | 3.0 | 4.0 | 0.00 | 0.11 | 0.11 | 95 | 1003.3 |
| 20260506221048 | 60 | 226 | 2.0 | 2.0 | 0.00 | 0.11 | 0.11 | 95 | 1003.2 |
| 20260506220544 | 60 | 234 | 4.0 | 6.0 | 0.00 | 0.11 | 0.11 | 95 | 1003.2 |
| 20260506220039 | 60 | 188 | 4.0 | 6.0 | 0.00 | 0.11 | 0.11 | 95 | 1003.4 |
| 20260506215537 | 60 | 229 | 2.0 | 3.0 | 0.00 | 0.11 | 0.11 | 95 | 1003.4 |
| 20260506215032 | 60 | 236 | 2.0 | 2.0 | 0.00 | 0.11 | 0.11 | 95 | 1003.6 |
| 20260506214529 | 60 | 206 | 2.0 | 3.0 | 0.00 | 0.11 | 0.11 | 95 | 1003.7 |
| 20260506214026 | 60 | 192 | 3.0 | 3.0 | 0.00 | 0.11 | 0.11 | 95 | 1003.7 |
| 20260506213525 | 60 | 219 | 2.0 | 3.0 | 0.05 | 0.11 | 0.11 | 95 | 1003.8 |
| 20260506213022 | 60 | 235 | 2.0 | 2.0 | 0.05 | 0.11 | 0.11 | 95 | 1003.7 |
| 20260506212518 | 60 | 234 | 3.0 | 4.0 | 0.07 | 0.10 | 0.10 | 94 | 1003.8 |
| 20260506212013 | 60 | 188 | 1.0 | 1.0 | 0.07 | 0.10 | 0.10 | 94 | 1004.0 |
| 20260506211509 | 60 | 234 | 2.0 | 2.0 | 0.00 | 0.09 | 0.09 | 94 | 1003.8 |
| 20260506211007 | 61 | 155 | 4.0 | 6.0 | 0.05 | 0.09 | 0.09 | 94 | 1003.7 |
| 20260506210503 | 61 | 224 | 1.0 | 1.0 | 0.05 | 0.09 | 0.09 | 93 | 1004.1 |
| 20260506205959 | 61 | 210 | 2.0 | 2.0 | 0.07 | 0.08 | 0.08 | 93 | 1004.1 |
| 20260506205455 | 61 | 197 | 2.0 | 2.0 | 0.12 | 0.08 | 0.08 | 93 | 1004.1 |
| 20260506204946 | 61 | 217 | 1.0 | 1.0 | 0.05 | 0.07 | 0.07 | 92 | 1004.1 |
| 20260506204444 | 62 | 212 | 3.0 | 3.0 | 0.07 | 0.06 | 0.06 | 91 | 1003.9 |
| 20260506203941 | 62 | 174 | 3.0 | 3.0 | 0.07 | 0.06 | 0.06 | 91 | 1004.1 |
| 20260506203438 | 62 | 228 | 1.0 | 1.0 | 0.12 | 0.05 | 0.05 | 90 | 1003.7 |
| 20260506202935 | 62 | 226 | 1.0 | 2.0 | 0.12 | 0.05 | 0.05 | 89 | 1003.9 |
| 20260506202432 | 63 | 177 | 2.0 | 2.0 | 0.05 | 0.03 | 0.03 | 88 | 1004.1 |
| 20260506201929 | 63 | 219 | 1.0 | 1.0 | 0.05 | 0.03 | 0.03 | 87 | 1003.8 |
| 20260506201427 | 63 | 226 | 2.0 | 3.0 | 0.00 | 0.02 | 0.02 | 86 | 1003.9 |
| 20260506200923 | 63 | 171 | 2.0 | 3.0 | 0.00 | 0.02 | 0.02 | 86 | 1003.8 |
| 20260506200419 | 64 | 242 | 2.0 | 2.0 | 0.00 | 0.02 | 0.02 | 86 | 1003.8 |
| 20260506195916 | 64 | 192 | 2.0 | 2.0 | 0.00 | 0.02 | 0.02 | 85 | 1003.7 |
| 20260506195413 | 64 | 180 | 2.0 | 2.0 | 0.07 | 0.02 | 0.02 | 85 | 1003.9 |
| 20260506194909 | 64 | 226 | 0.0 | 0.0 | 0.07 | 0.02 | 0.02 | 84 | 1003.8 |
| 20260506194407 | 64 | 215 | 2.0 | 3.0 | 0.00 | 0.01 | 0.01 | 83 | 1003.9 |
| 20260506193904 | 65 | 224 | 1.0 | 1.0 | 0.00 | 0.01 | 0.01 | 82 | 1004.2 |
| 20260506193401 | 65 | 222 | 1.0 | 1.0 | 0.00 | 0.01 | 0.01 | 81 | 1004.1 |
| 20260506192857 | 65 | 224 | 0.0 | 1.0 | 0.07 | 0.01 | 0.01 | 80 | 1004.0 |
| 20260506192354 | 66 | 184 | 0.0 | 1.0 | 0.07 | 0.01 | 0.01 | 79 | 1003.9 |
| 20260506191851 | 66 | 176 | 1.0 | 1.0 | 0.00 | 0.00 | 0.00 | 79 | 1003.9 |
| 20260506191347 | 66 | 185 | 3.0 | 4.0 | 0.00 | 0.00 | 0.00 | 78 | 1003.9 |
| 20260506190844 | 66 | 167 | 2.0 | 2.0 | 0.00 | 0.00 | 0.00 | 77 | 1003.9 |
| 20260506190340 | 66 | 182 | 3.0 | 3.0 | 0.00 | 0.00 | 0.00 | 76 | 1004.1 |
| 20260506185837 | 66 | 209 | 1.0 | 2.0 | 0.00 | 0.00 | 0.00 | 75 | 1004.1 |
| 20260506185334 | 67 | 200 | 4.0 | 7.0 | 0.00 | 0.00 | 0.00 | 74 | 1004.0 |
| 20260506184831 | 67 | 222 | 2.0 | 2.0 | 0.00 | 0.00 | 0.00 | 73 | 1004.0 |
| 20260506184328 | 67 | 236 | 2.0 | 2.0 | 0.00 | 0.00 | 0.00 | 73 | 1004.0 |
| 20260506183826 | 68 | 184 | 2.0 | 3.0 | 0.00 | 0.00 | 0.00 | 71 | 1004.0 |
| 20260506183321 | 69 | 206 | 7.0 | 9.0 | 0.00 | 0.00 | 0.00 | 67 | 1004.1 |
| 20260506182819 | 70 | 148 | 4.0 | 6.0 | 0.00 | 0.00 | 0.00 | 66 | 1003.9 |
| 20260506182315 | 70 | 181 | 4.0 | 7.0 | 0.00 | 0.00 | 0.00 | 65 | 1003.6 |
| 20260506181813 | 70 | 215 | 5.0 | 7.0 | 0.00 | 0.00 | 0.00 | 64 | 1003.9 |
| 20260506181311 | 71 | 251 | 2.0 | 3.0 | 0.00 | 0.00 | 0.00 | 64 | 1004.0 |
| 20260506180808 | 71 | 174 | 4.0 | 4.0 | 0.00 | 0.00 | 0.00 | 64 | 1004.3 |
| 20260506180304 | 71 | 150 | 3.0 | 4.0 | 0.00 | 0.00 | 0.00 | 63 | 1004.2 |
| 20260506175800 | 71 | 187 | 4.0 | 7.0 | 0.00 | 0.00 | 0.00 | 64 | 1004.1 |
| 20260506175257 | 71 | 200 | 5.0 | 8.0 | 0.00 | 0.00 | 0.00 | 64 | 1004.3 |
| 20260506174754 | 71 | 202 | 3.0 | 4.0 | 0.00 | 0.00 | 0.00 | 64 | 1004.3 |
| 20260506174252 | 71 | 245 | 2.0 | 3.0 | 0.00 | 0.00 | 0.00 | 64 | 1004.2 |
| 20260506173749 | 71 | 164 | 4.0 | 8.0 | 0.00 | 0.00 | 0.00 | 63 | 1004.1 |
| 20260506173246 | 72 | 187 | 3.0 | 3.0 | 0.00 | 0.00 | 0.00 | 63 | 1004.2 |
| 20260506172743 | 71 | 178 | 5.0 | 7.0 | 0.00 | 0.00 | 0.00 | 64 | 1004.4 |
| 20260506172239 | 70 | 187 | 2.0 | 3.0 | 0.00 | 0.00 | 0.00 | 65 | 1004.4 |
| 20260506171737 | 70 | 156 | 2.0 | 3.0 | 0.00 | 0.00 | 0.00 | 65 | 1004.5 |
| 20260506171234 | 69 | 161 | 4.0 | 7.0 | 0.00 | 0.00 | 0.00 | 65 | 1004.6 |
| 20260506170732 | 70 | 209 | 5.0 | 8.0 | 0.00 | 0.00 | 0.00 | 65 | 1004.5 |
| 20260506170228 | 70 | 179 | 3.0 | 4.0 | 0.00 | 0.00 | 0.00 | 65 | 1004.8 |
| 20260506165727 | 70 | 209 | 2.0 | 2.0 | 0.00 | 0.00 | 0.00 | 65 | 1004.7 |
| 20260506165223 | 69 | 209 | 2.0 | 3.0 | 0.00 | 0.00 | 0.00 | 66 | 1004.7 |
| 20260506164720 | 69 | 163 | 4.0 | 6.0 | 0.00 | 0.00 | 0.00 | 66 | 1004.9 |
| 20260506164217 | 70 | 145 | 3.0 | 6.0 | 0.00 | 0.00 | 0.00 | 65 | 1004.9 |
| 20260506163714 | 70 | 267 | 4.0 | 6.0 | 0.00 | 0.00 | 0.00 | 65 | 1004.9 |
| 20260506163209 | 70 | 206 | 2.0 | 3.0 | 0.00 | 0.00 | 0.00 | 65 | 1004.9 |
| 20260506162705 | 71 | 153 | 6.0 | 8.0 | 0.00 | 0.00 | 0.00 | 63 | 1005.0 |
| 20260506162203 | 72 | 204 | 3.0 | 4.0 | 0.00 | 0.00 | 0.00 | 63 | 1005.3 |
| 20260506161700 | 72 | 140 | 3.0 | 3.0 | 0.00 | 0.00 | 0.00 | 62 | 1005.3 |
| 20260506161156 | 72 | 189 | 2.0 | 3.0 | 0.00 | 0.00 | 0.00 | 61 | 1005.3 |
| 20260506160654 | 72 | 188 | 3.0 | 4.0 | 0.00 | 0.00 | 0.00 | 61 | 1005.5 |
| 20260506160151 | 72 | 213 | 4.0 | 7.0 | 0.00 | 0.00 | 0.00 | 62 | 1005.7 |
| 20260506155649 | 71 | 192 | 3.0 | 3.0 | 0.00 | 0.00 | 0.00 | 63 | 1005.7 |
| 20260506155146 | 71 | 195 | 4.0 | 4.0 | 0.00 | 0.00 | 0.00 | 63 | 1005.7 |
| 20260506153248 | 71 | 205 | 4.0 | 4.0 | 0.00 | 0.00 | 0.00 | 64 | 1006.0 |
| 20260506152745 | 71 | 211 | 2.0 | 2.0 | 0.00 | 0.00 | 0.00 | 65 | 1006.4 |
| 20260506152242 | 71 | 174 | 2.0 | 2.0 | 0.00 | 0.00 | 0.00 | 64 | 1006.3 |
| 20260506151741 | 71 | 180 | 5.0 | 6.0 | 0.00 | 0.00 | 0.00 | 64 | 1006.2 |
| 20260506151237 | 71 | 153 | 5.0 | 7.0 | 0.00 | 0.00 | 0.00 | 64 | 1006.2 |
| 20260506150734 | 70 | 175 | 3.0 | 4.0 | 0.00 | 0.00 | 0.00 | 65 | 1006.4 |
| 20260506150231 | 70 | 214 | 3.0 | 4.0 | 0.00 | 0.00 | 0.00 | 65 | 1006.5 |
| 20260506145728 | 70 | 170 | 2.0 | 4.0 | 0.00 | 0.00 | 0.00 | 66 | 1006.5 |
| 20260506145225 | 70 | 193 | 3.0 | 3.0 | 0.00 | 0.00 | 0.00 | 65 | 1006.0 |
| 20260506144722 | 71 | 227 | 3.0 | 3.0 | 0.00 | 0.00 | 0.00 | 64 | 1006.3 |
| 20260506144219 | 71 | 238 | 6.0 | 7.0 | 0.00 | 0.00 | 0.00 | 65 | 1006.1 |
| 20260506143716 | 69 | 185 | 7.0 | 8.0 | 0.00 | 0.00 | 0.00 | 67 | 1006.3 |
| 20260506143214 | 69 | 216 | 4.0 | 6.0 | 0.00 | 0.00 | 0.00 | 67 | 1005.9 |
| 20260506142713 | 70 | 204 | 4.0 | 4.0 | 0.00 | 0.00 | 0.00 | 67 | 1005.9 |
| 20260506142210 | 69 | 199 | 2.0 | 3.0 | 0.00 | 0.00 | 0.00 | 68 | 1005.9 |
| 20260506141708 | 68 | 247 | 9.0 | 10.0 | 0.00 | 0.00 | 0.00 | 68 | 1006.3 |
| 20260506141206 | 68 | 227 | 4.0 | 6.0 | 0.00 | 0.00 | 0.00 | 69 | 1006.1 |
| 20260506140703 | 68 | 201 | 2.0 | 3.0 | 0.00 | 0.00 | 0.00 | 70 | 1006.1 |
| 20260506140200 | 68 | 254 | 5.0 | 7.0 | 0.00 | 0.00 | 0.00 | 69 | 1006.4 |
| 20260506135657 | 68 | 215 | 3.0 | 4.0 | 0.00 | 0.00 | 0.00 | 70 | 1006.3 |
| 20260506135153 | 68 | 195 | 2.0 | 3.0 | 0.00 | 0.00 | 0.00 | 70 | 1006.5 |
| 20260506134650 | 67 | 184 | 3.0 | 4.0 | 0.00 | 0.00 | 0.00 | 71 | 1006.4 |
| 20260506134146 | 67 | 217 | 4.0 | 4.0 | 0.00 | 0.00 | 0.00 | 71 | 1006.8 |
| 20260506133643 | 66 | 220 | 3.0 | 3.0 | 0.00 | 0.00 | 0.00 | 72 | 1006.7 |
| 20260506133140 | 67 | 197 | 4.0 | 6.0 | 0.00 | 0.00 | 0.00 | 72 | 1006.9 |
| 20260506132637 | 67 | 224 | 6.0 | 8.0 | 0.00 | 0.00 | 0.00 | 72 | 1006.6 |
| 20260506132134 | 67 | 203 | 4.0 | 6.0 | 0.00 | 0.00 | 0.00 | 72 | 1006.6 |
| 20260506131632 | 66 | 237 | 3.0 | 4.0 | 0.00 | 0.00 | 0.00 | 72 | 1006.6 |
| 20260506131128 | 66 | 190 | 5.0 | 6.0 | 0.00 | 0.00 | 0.00 | 73 | 1006.7 |
| 20260506130625 | 66 | 217 | 6.0 | 7.0 | 0.00 | 0.00 | 0.00 | 73 | 1006.8 |
| 20260506130122 | 67 | 228 | 7.0 | 9.0 | 0.00 | 0.00 | 0.00 | 72 | 1006.8 |
| 20260506125620 | 67 | 231 | 3.0 | 4.0 | 0.00 | 0.00 | 0.00 | 71 | 1006.7 |
| 20260506125118 | 66 | 182 | 3.0 | 4.0 | 0.00 | 0.00 | 0.00 | 73 | 1006.7 |
| 20260506124615 | 65 | 159 | 2.0 | 6.0 | 0.00 | 0.00 | 0.00 | 74 | 1006.7 |
| 20260506124113 | 65 | 230 | 5.0 | 6.0 | 0.00 | 0.00 | 0.00 | 75 | 1006.9 |
| 20260506123610 | 65 | 185 | 3.0 | 3.0 | 0.00 | 0.00 | 0.00 | 75 | 1007.0 |
| 20260506123109 | 65 | 219 | 4.0 | 6.0 | 0.00 | 0.00 | 0.00 | 75 | 1006.7 |
| 20260506122605 | 64 | 194 | 3.0 | 3.0 | 0.00 | 0.00 | 0.00 | 75 | 1006.9 |
| 20260506122103 | 64 | 218 | 2.0 | 2.0 | 0.00 | 0.00 | 0.00 | 76 | 1006.8 |
| 20260506121601 | 64 | 190 | 6.0 | 8.0 | 0.00 | 0.00 | 0.00 | 76 | 1006.7 |
| 20260506121056 | 64 | 219 | 4.0 | 4.0 | 0.00 | 0.00 | 0.00 | 76 | 1006.7 |
| 20260506120555 | 64 | 176 | 4.0 | 6.0 | 0.00 | 0.00 | 0.00 | 76 | 1007.1 |
| 20260506120052 | 64 | 232 | 4.0 | 4.0 | 0.00 | 0.00 | 0.00 | 76 | 1006.9 |
| 20260506115550 | 64 | 198 | 3.0 | 3.0 | 0.00 | 0.00 | 0.00 | 77 | 1006.9 |
| 20260506115048 | 63 | 208 | 3.0 | 3.0 | 0.00 | 0.00 | 0.00 | 77 | 1007.1 |
| 20260506114545 | 63 | 183 | 5.0 | 7.0 | 0.00 | 0.00 | 0.00 | 77 | 1007.2 |
| 20260506114043 | 63 | 226 | 2.0 | 2.0 | 0.00 | 0.00 | 0.00 | 77 | 1007.3 |
| 20260506113541 | 63 | 202 | 2.0 | 2.0 | 0.00 | 0.00 | 0.00 | 77 | 1007.2 |
| 20260506113038 | 63 | 204 | 3.0 | 3.0 | 0.00 | 0.00 | 0.00 | 77 | 1007.1 |
| 20260506112534 | 63 | 232 | 4.0 | 6.0 | 0.00 | 0.00 | 0.00 | 78 | 1007.1 |
| 20260506112032 | 63 | 221 | 3.0 | 3.0 | 0.00 | 0.00 | 0.00 | 78 | 1006.9 |
| 20260506111530 | 62 | 230 | 2.0 | 2.0 | 0.00 | 0.00 | 0.00 | 78 | 1007.1 |
| 20260506111027 | 62 | 242 | 3.0 | 3.0 | 0.00 | 0.00 | 0.00 | 79 | 1007.2 |
| 20260506110524 | 62 | 262 | 3.0 | 4.0 | 0.00 | 0.00 | 0.00 | 79 | 1007.2 |
| 20260506110021 | 62 | 197 | 2.0 | 3.0 | 0.00 | 0.00 | 0.00 | 79 | 1007.2 |
| 20260506105517 | 62 | 224 | 2.0 | 3.0 | 0.00 | 0.00 | 0.00 | 79 | 1007.2 |
| 20260506105015 | 62 | 187 | 5.0 | 8.0 | 0.00 | 0.00 | 0.00 | 79 | 1007.0 |
| 20260506104513 | 62 | 223 | 1.0 | 2.0 | 0.00 | 0.00 | 0.00 | 79 | 1007.1 |
| 20260506104010 | 62 | 210 | 4.0 | 6.0 | 0.00 | 0.00 | 0.00 | 79 | 1007.0 |
| 20260506103507 | 62 | 224 | 1.0 | 2.0 | 0.00 | 0.00 | 0.00 | 79 | 1007.0 |
| 20260506103004 | 62 | 213 | 3.0 | 3.0 | 0.00 | 0.00 | 0.00 | 79 | 1007.3 |
| 20260506102503 | 62 | 236 | 0.0 | 0.0 | 0.00 | 0.00 | 0.00 | 78 | 1007.1 |
| 20260506101959 | 62 | 197 | 1.0 | 2.0 | 0.00 | 0.00 | 0.00 | 78 | 1007.0 |
| 20260506101455 | 62 | 198 | 3.0 | 6.0 | 0.00 | 0.00 | 0.00 | 78 | 1007.1 |
| 20260506100953 | 62 | 218 | 2.0 | 3.0 | 0.00 | 0.00 | 0.00 | 78 | 1006.8 |
| 20260506100451 | 62 | 202 | 6.0 | 9.0 | 0.00 | 0.00 | 0.00 | 78 | 1006.8 |
| 20260506095949 | 62 | 218 | 1.0 | 2.0 | 0.00 | 0.00 | 0.00 | 78 | 1007.0 |